Regional Weather Roundup
Issued by NWS

Home | Current Version | Previous Version | Graphics & Text | Print | Product List | Glossary On
Versions: 1 2 3 4 5 6 7 8 9 10 11 12 13 14 15 16 17 18 19 20 21 22 23 24 25 26 27 28 29 30 31 32 33 34 35 36 37 38 39 40 41 42 43 44 45 46 47 48 49 50
000
ASUS45 KSLC 300510
RWRUT

UTAH REGIONAL WEATHER ROUNDUP
NATIONAL WEATHER SERVICE SALT LAKE CITY UT
1100 PM MDT FRI MAY 29 2015

UTZ001>011-023>025-300600-

NORTHERN UTAH

CITY           SKY/WX    TMP DP  RH WIND       PRES   REMARKS
BRIGHAM CITY   PTCLDY    64  51  62 CALM      30.13S
HILL AFB       PTCLDY    60  38  43 E12       30.15R
LOGAN          CLEAR     59  46  62 S6        30.14R
OGDEN          PTCLDY    58  45  62 S6        30.13R
PROVO AIRPORT  PTCLDY    57  45  62 S6        30.15R
SALT LAKE CITY MOCLDY    64  45  49 S3        30.12R
VERNAL         CLEAR     56  43  61 W6        30.23R
WENDOVER       CLEAR     66  45  45 NE5       30.12R
HEBER CITY     CLEAR     54  39  58 CALM      30.22R
WEST JORDAN    CLEAR     61  45  55 CALM      30.15R

$$

UTZ012>022-026-027-300600-

SOUTHERN/CENTRAL UTAH

CITY           SKY/WX    TMP DP  RH WIND       PRES   REMARKS
BLANDING       CLEAR     57  27  31 N8        30.28S
BRYCE CANYON   PTCLDY    51  40  65 NE6       30.33S
CEDAR CITY     MOCLDY    64  38  38 E10G20    30.17F
DELTA          CLEAR     62  42  48 S7        30.16R
HANKSVILLE     CLEAR     61  32  33 NE3       30.16R
MILFORD        MOCLDY    60  49  66 CALM      30.16R
MOAB/CYNLANDS  CLEAR     63  35  35 CALM      30.13R
PRICE          CLEAR     60  38  43 N7        30.23R
ST GEORGE      CLEAR     81  37  21 NE10      30.01R
KANAB          PTCLDY    63  39  42 NW10      30.19R

$$

REGIONAL REPORTS     COLORADO/ARIZONA

CITY           SKY/WX    TMP DP  RH WIND       PRES   REMARKS
CRAIG, CO      CLEAR     43  39  86 SE3       30.30S
GRAND JUNCTION CLEAR     63  38  39 E7        30.17R
RIFLE          CLEAR     55  41  59 E6        30.25R
MONTROSE       CLEAR     55  39  54 SE8       30.25R
CORTEZ         CLEAR     53  28  38 NE7       30.22R
PAGE, AZ       PTCLDY    76  39  26 N5        30.12R
GRAND CANYON   PTCLDY    64  35  34 E6        30.25R
KINGMAN        PTCLDY    72   8   8 S12       30.02R
FLAGSTAFF      PTCLDY    50  38  63 CALM      30.29R

$$

REGIONAL REPORTS    NEVADA/IDAHO/WYOMING

CITY           SKY/WX    TMP DP  RH WIND       PRES   REMARKS
LAS VEGAS, NV  PTCLDY    90  19   7 S13       29.85R
ELY            MOCLDY    61  44  53 S13       30.18R
ELKO           PTCLDY    63  40  42 E3        30.09R
POCATELLO, ID  CLEAR     60  48  64 NE5       30.12R
BURLEY         CLEAR     61  44  53 VRB3      30.07R
EVANSTON, WY   CLEAR     53  39  59 E7        30.28S
ROCK SPRINGS   CLEAR     50  41  71 SE8       30.30R
KEMMERER       CLEAR     52  36  54 E5        30.30F

$$



USA.gov is the U.S. government's official web portal to all federal, state and local government web resources and services.